When you browse on this site, cookies collect data to enhance your experience and personalize the content and advertising you see.
Visit our Privacy Policy to learn more. By continuing to use the site, you agree to this use of cookies and data.
  • In Sweden
  • List of Countries
  • For 7 days
  • Water Temperature
  • Satellite Maps
  • Weather Map
  • Weather Widgets
  • user-avatar
    Login

    Hourly Weather Tooele

    Today, 19 May, Sunday

    Time Temperature Precipitation Wind Pressure Humidity
    00:00 +6°C° 0 mm 4 mps 612 mmHg 61%
    01:00 +7°C° 0 mm 3 mps 611 mmHg 60%
    02:00 +7°C° 0 mm 3 mps 611 mmHg 60%
    03:00 +7°C° 0.1 mm 3 mps 610 mmHg 59%
    04:00 +7°C° 0.1 mm 3 mps 610 mmHg 58%
    05:00 +7°C° 0.1 mm 3 mps 609 mmHg 58%
    06:00 +7°C° 0.1 mm 3 mps 609 mmHg 56%
    07:00 +8°C° 0.1 mm 3 mps 609 mmHg 54%
    08:00 +9°C° 0.1 mm 3 mps 609 mmHg 53%
    09:00 +8°C° 0.5 mm 4 mps 609 mmHg 54%
    10:00 +8°C° 0.5 mm 5 mps 608 mmHg 55%
    11:00 +9°C° 0.5 mm 6 mps 608 mmHg 55%
    12:00 +9°C° 0.4 mm 6 mps 608 mmHg 54%
    13:00 +10°C° 0.4 mm 7 mps 608 mmHg 52%
    14:00 +11°C° 0.4 mm 7 mps 608 mmHg 50%
    15:00 +10°C° 0.3 mm 7 mps 607 mmHg 54%
    16:00 +9°C° 0.3 mm 7 mps 607 mmHg 58%
    17:00 +8°C° 0.3 mm 7 mps 606 mmHg 62%
    18:00 +7°C° 0.1 mm 6 mps 606 mmHg 63%
    19:00 +7°C° 0.1 mm 6 mps 606 mmHg 65%
    20:00 +6°C° 0.1 mm 5 mps 606 mmHg 66%
    21:00 +4°C° 0 mm 6 mps 606 mmHg 67%
    22:00 +4°C° 0 mm 6 mps 606 mmHg 68%
    23:00 +4°C° 0 mm 6 mps 606 mmHg 70%

    Tomorrow, 20 May, Monday

    Time Temperature Precipitation Wind Pressure Humidity
    00:00 +3°C° 0.1 mm 5 mps 606 mmHg 70%
    01:00 +3°C° 0.1 mm 5 mps 606 mmHg 71%
    02:00 +4°C° 0.1 mm 4 mps 607 mmHg 71%
    03:00 +3°C° 0.1 mm 4 mps 606 mmHg 72%
    04:00 +1°C° 0.1 mm 4 mps 606 mmHg 72%
    05:00 +1°C° 0.1 mm 4 mps 606 mmHg 73%
    06:00 +3°C° 0 mm 4 mps 607 mmHg 67%
    07:00 +5°C° 0 mm 4 mps 608 mmHg 62%
    08:00 +6°C° 0 mm 4 mps 608 mmHg 56%
    09:00 +7°C° 0 mm 4 mps 608 mmHg 51%
    10:00 +9°C° 0 mm 3 mps 609 mmHg 46%
    11:00 +10°C° 0 mm 3 mps 609 mmHg 41%
    12:00 +10°C° 0.3 mm 3 mps 609 mmHg 40%
    13:00 +12°C° 0.3 mm 2 mps 609 mmHg 40%
    14:00 +12°C° 0.3 mm 2 mps 609 mmHg 39%
    15:00 +12°C° 0.3 mm 2 mps 609 mmHg 40%
    16:00 +11°C° 0.3 mm 3 mps 609 mmHg 42%
    17:00 +11°C° 0.3 mm 3 mps 608 mmHg 43%
    18:00 +10°C° 0.1 mm 2 mps 608 mmHg 48%
    19:00 +8°C° 0.1 mm 2 mps 608 mmHg 53%
    20:00 +8°C° 0.1 mm 1 mps 607 mmHg 58%
    21:00 +7°C° 0 mm 1 mps 607 mmHg 60%
    22:00 +7°C° 0 mm 1 mps 607 mmHg 62%
    23:00 +6°C° 0 mm 1 mps 607 mmHg 64%

    Day after tomorrow, 21 May, Tuesday

    Time Temperature Precipitation Wind Pressure Humidity
    00:00 +6°C° 0 mm 1 mps 606 mmHg 63%
    01:00 +6°C° 0 mm 1 mps 606 mmHg 63%
    02:00 +5°C° 0 mm 2 mps 606 mmHg 63%
    03:00 +4°C° 0 mm 2 mps 605 mmHg 65%
    04:00 +4°C° 0 mm 2 mps 605 mmHg 67%
    05:00 +4°C° 0 mm 2 mps 605 mmHg 69%
    06:00 +4°C° 0.1 mm 2 mps 605 mmHg 68%
    07:00 +5°C° 0.1 mm 2 mps 606 mmHg 68%
    08:00 +6°C° 0.1 mm 2 mps 606 mmHg 67%
    09:00 +6°C° 1.1 mm 2 mps 606 mmHg 70%
    10:00 +4°C° 1.1 mm 3 mps 605 mmHg 72%
    11:00 +4°C° 1.1 mm 4 mps 605 mmHg 75%
    12:00 +5°C° 0.1 mm 4 mps 605 mmHg 69%
    13:00 +7°C° 0.1 mm 3 mps 605 mmHg 62%
    14:00 +8°C° 0.1 mm 3 mps 606 mmHg 56%
    15:00 +8°C° 0 mm 3 mps 605 mmHg 55%
    16:00 +8°C° 0 mm 3 mps 605 mmHg 55%
    17:00 +8°C° 0 mm 3 mps 605 mmHg 54%
    18:00 +7°C° 0 mm 3 mps 605 mmHg 58%
    19:00 +6°C° 0 mm 2 mps 604 mmHg 62%
    20:00 +6°C° 0 mm 1 mps 604 mmHg 66%
    21:00 +5°C° 0 mm 1 mps 604 mmHg 67%
    22:00 +5°C° 0 mm 1 mps 604 mmHg 68%
    23:00 +5°C° 0 mm 1 mps 604 mmHg 69%

    22 May, Wednesday

    Time Temperature Precipitation Wind Pressure Humidity
    00:00 +5°C° 0 mm 1 mps 604 mmHg 70%
    01:00 +5°C° 0 mm 1 mps 604 mmHg 70%
    02:00 +5°C° 0 mm 1 mps 604 mmHg 70%
    03:00 +5°C° 0.2 mm 1 mps 605 mmHg 72%
    04:00 +5°C° 0.2 mm 1 mps 605 mmHg 73%
    05:00 +5°C° 0.2 mm 1 mps 605 mmHg 75%
    06:00 +6°C° 0.3 mm 1 mps 605 mmHg 74%
    07:00 +6°C° 0.3 mm 1 mps 606 mmHg 74%
    08:00 +7°C° 0.3 mm 1 mps 606 mmHg 73%
    09:00 +7°C° 0.4 mm 1 mps 607 mmHg 71%
    10:00 +8°C° 0.4 mm 1 mps 607 mmHg 69%
    11:00 +9°C° 0.4 mm 1 mps 608 mmHg 66%
    12:00 +9°C° 0.5 mm 1 mps 608 mmHg 63%
    13:00 +10°C° 0.5 mm 1 mps 608 mmHg 61%
    14:00 +11°C° 0.5 mm 1 mps 608 mmHg 58%
    15:00 +10°C° 0.6 mm 2 mps 608 mmHg 58%
    16:00 +10°C° 0.6 mm 2 mps 608 mmHg 58%
    17:00 +10°C° 0.6 mm 2 mps 608 mmHg 57%
    18:00 +9°C° 0.4 mm 2 mps 608 mmHg 62%
    19:00 +8°C° 0.4 mm 2 mps 608 mmHg 67%
    20:00 +7°C° 0.4 mm 2 mps 608 mmHg 72%
    21:00 +8°C° 0.2 mm 1 mps 608 mmHg 74%
    22:00 +7°C° 0.2 mm 1 mps 608 mmHg 76%
    23:00 +6°C° 0.2 mm 0 mps 608 mmHg 78%

    23 May, Thursday

    Time Temperature Precipitation Wind Pressure Humidity
    00:00 +6°C° 0 mm 1 mps 608 mmHg 78%
    01:00 +6°C° 0 mm 1 mps 608 mmHg 78%
    02:00 +6°C° 0 mm 1 mps 608 mmHg 78%
    03:00 +6°C° 0 mm 1 mps 608 mmHg 76%
    04:00 +6°C° 0 mm 1 mps 608 mmHg 74%
    05:00 +5°C° 0 mm 2 mps 608 mmHg 72%
    06:00 +6°C° 0.3 mm 2 mps 609 mmHg 72%
    07:00 +5°C° 0.3 mm 3 mps 610 mmHg 72%
    08:00 +6°C° 0.3 mm 4 mps 610 mmHg 72%
    09:00 +7°C° 0.8 mm 4 mps 611 mmHg 72%
    10:00 +7°C° 0.8 mm 4 mps 611 mmHg 71%
    11:00 +8°C° 0.8 mm 4 mps 612 mmHg 70%
    12:00 +9°C° 1.1 mm 3 mps 612 mmHg 70%
    13:00 +9°C° 1.1 mm 3 mps 612 mmHg 70%
    14:00 +9°C° 1.1 mm 3 mps 612 mmHg 71%
    15:00 +9°C° 1.4 mm 3 mps 612 mmHg 71%
    16:00 +9°C° 1.4 mm 3 mps 612 mmHg 71%
    17:00 +9°C° 1.4 mm 3 mps 612 mmHg 72%
    18:00 +9°C° 1 mm 3 mps 612 mmHg 74%
    19:00 +7°C° 1 mm 4 mps 613 mmHg 77%
    20:00 +7°C° 1 mm 4 mps 613 mmHg 79%
    21:00 +7°C° 0.4 mm 4 mps 613 mmHg 81%
    22:00 +6°C° 0.4 mm 4 mps 613 mmHg 82%
    23:00 +6°C° 0.4 mm 4 mps 614 mmHg 84%

    24 May, Friday

    Time Temperature Precipitation Wind Pressure Humidity
    00:00 +6°C° 0.3 mm 4 mps 614 mmHg 83%
    01:00 +6°C° 0.3 mm 4 mps 614 mmHg 82%
    02:00 +5°C° 0.3 mm 3 mps 614 mmHg 80%
    03:00 +5°C° 0.2 mm 3 mps 614 mmHg 79%
    04:00 +5°C° 0.2 mm 3 mps 614 mmHg 77%
    05:00 +5°C° 0.2 mm 3 mps 614 mmHg 75%
    06:00 +7°C° 0.1 mm 3 mps 615 mmHg 69%
    07:00 +8°C° 0.1 mm 3 mps 615 mmHg 64%
    08:00 +9°C° 0.1 mm 3 mps 616 mmHg 59%
    09:00 +11°C° 0 mm 3 mps 616 mmHg 53%
    10:00 +12°C° 0 mm 3 mps 617 mmHg 48%
    11:00 +14°C° 0 mm 3 mps 618 mmHg 42%
    12:00 +14°C° 0 mm 3 mps 618 mmHg 40%
    13:00 +16°C° 0 mm 3 mps 618 mmHg 37%
    14:00 +17°C° 0 mm 3 mps 618 mmHg 34%
    15:00 +17°C° 0 mm 3 mps 617 mmHg 33%
    16:00 +17°C° 0 mm 2 mps 617 mmHg 33%
    17:00 +18°C° 0 mm 2 mps 617 mmHg 32%
    18:00 +16°C° 0 mm 2 mps 617 mmHg 37%
    19:00 +15°C° 0 mm 2 mps 616 mmHg 41%
    20:00 +13°C° 0 mm 2 mps 616 mmHg 46%
    21:00 +13°C° 0 mm 2 mps 616 mmHg 48%
    22:00 +13°C° 0 mm 2 mps 616 mmHg 49%
    23:00 +12°C° 0 mm 2 mps 616 mmHg 50%
    Show more